Weather in Prigory

Russia / Smolensk Oblast     53°48′48″N   33°08′29″E
temp.,
°C
wind,
m/s
gust,
m/s
humid.,
%
clouds,
%
prec.,
mm/h
press.,
hPa
HPBL,
m
12 may, wed
wed1200:00+11ese3109872 0.0 1023382
03:00+8ese49963 0.0 1024294
06:00+6se39910 0.0 1025287
09:00+11se36694 0.0 1025579
12:00+14e455310 0.0 10231468
15:00+16ene4647100 0.0 10192130
18:00+10e3591100 1.9 1018246
21:00+9sse3695100 4.7 1016308
13 may, thu
thu1300:00+8ese410965 0.8 1015343
03:00+6e4119754 0.8 1015296
06:00+8ese5109699 0.9 1014526
09:00+10se7108015 1.1 1014963
12:00+14sse796165 0.4 10131688
15:00+14sse686250 1.1 10131557
18:00+12s576919 0.1 1013971
21:00+9sse358479 0.1 101482
14 may, fri
fri1400:00+9sse37820 0.0 1014149
03:00+7se49919 0.0 1014159
06:00+8ese41090100 0.0 1014224
09:00+13ese5975100 0.0 1013407
12:00+18ese6965100 0.0 10121019
15:00+19se797065 1.4 10101167
18:00+18s598051 3.9 1008370
21:00+14s3390100 5.9 100838
15 may, sat
sat1500:00+13s229332 0.0 100921
03:00+12se11925 0.0 100810
06:00+12se2395100 0.3 100849
09:00+16s3482100 0.3 1008411
12:00+19s577036 2.6 10071113
15:00+18ssw787528 5.2 10071061
18:00+16sw69867 2.1 1008805
21:00+13sw4991100 2.2 1010397
16 may, sun
sun1600:00+10sw36955 0.0 1011110
03:00+9sw349534 0.0 101369
06:00+10wsw2495100 0.0 1014116
09:00+14wsw12760 0.0 1015473
12:00+18nw12584 0.0 10151104
15:00+20ne225169 0.0 10151299
18:00+19ene3464100 0.0 1014372
21:00+14ne477475 0.0 101491